Tracking 29892 objects as of 21-Nov-2024
HD Live streaming from Space Station
objects crossing your sky now

FENGYUN 1C DEB

Track FENGYUN 1C DEB now!
10-day predictions


NORAD ID: 31009
Int'l Code: 1999-025BDB
Perigee: 858.0 km
Apogee: 944.8 km
Inclination: 98.9 °
Period: 102.9 minutes
Semi major axis: 7272 km
RCS: 0.01 m2 (small)
Launch date: May 10, 1999
Source: People's Republic of China (PRC)
Launch site: Taiyaun Space Center, China (TSC)

Note: This is SATELLITE DEBRIS
Your satellite tracking list
Your tracking list is empty




NASA's NSSDC Master Catalog

Two Line Element Set (TLE):
1 31009U 99025BDB 24325.72951389  .00000983  00000-0  68866-3 0  9995
2 31009  98.8821 326.3157 0059697 225.5939 188.9666 13.99867934904454
Source of the keplerian elements: AFSPC